Content
SEND FEEDBACK

Daily
Averages
Monthly
Summary
United States of America

LONGVILLE, LOUISIANA


Home > North America > United States > Louisiana
Elevation: 110 feet     Latitude: 30 38N     Longitude: 093 14W

WEATHER
 
SELECT A DAY
Number of Records: 227,844;   Date Range: 9/20/04 - 7/26/14
 
SHARE

PRINT THIS DATA

[ ← Previous Day ]
WEATHER ALMANAC - JANUARY 31, 2013
[ Next Day → ]
[ °C ]   °F
Weather ElementAverageHighLow
Temperature36.3 °F62.6 °F (3:15 pm) (12:35 am)
Dewpoint16.1 °F32 °F (1:15 am) (7:00 pm)
Humidity36.6 %87 % (1:15 am)15 % (1:15 pm)
Barometer30.27 in30.33 in (8:55 pm)30.22 in (2:35 am)
Wind Speed4.6 mph11.5 mph (6:15 pm)
Wind Gust16.1 mph (1:35 pm)
Weather ElementAverage
Visibility10 mi
Wind DirectionSE (132.4 °)

Weather ElementTotal
Precipitation---
Heating Degree Days33.7 (Base 65)
Averaged from 70 records on January 31, 2013
WEATHER CONDITIONS BREAKOUT
WIND DIRECTION BREAKOUT
WEATHER BY HOUR - JANUARY 31, 2013
[ °C ]   °F
Local TimeTemperatureDewpointHumidityBarometerVisibilityWind DirectionWind SpeedGust SpeedPrecipitationEventsConditions
12:35 AM0.0 °F0.0 °F30.24 in10.0 miCalmClear
12:55 AM0.0 °F0.0 °F30.24 in10.0 miCalmClear
1:15 AM35.6 °F32.0 °F87 %30.25 in10.0 miCalmClear
1:35 AM35.6 °F32.0 °F87 %30.24 in10.0 miCalmClear
1:55 AM0.0 °F0.0 °F30.24 in10.0 miCalmClear
2:15 AM0.0 °F0.0 °F30.25 in10.0 miCalmClear
2:35 AM0.0 °F0.0 °F30.22 in10.0 miCalmClear
2:55 AM0.0 °F0.0 °F30.22 in10.0 miCalmClear
3:15 AM0.0 °F0.0 °F30.22 in10.0 miCalmClear
3:35 AM0.0 °F0.0 °F30.23 in10.0 miCalmClear
3:55 AM0.0 °F0.0 °F30.23 in10.0 miCalmClear
4:15 AM0.0 °F0.0 °F30.22 in10.0 miCalmClear
4:35 AM0.0 °F0.0 °F30.22 in10.0 miCalmScattered Clouds
4:55 AM0.0 °F0.0 °F30.23 in10.0 miCalmClear
5:15 AM0.0 °F0.0 °F30.23 in10.0 miCalmClear
5:35 AM0.0 °F0.0 °F30.23 in10.0 miCalmClear
5:55 AM0.0 °F0.0 °F30.24 in10.0 miCalmClear
6:15 AM0.0 °F0.0 °F30.24 in10.0 miCalmClear
6:55 AM0.0 °F0.0 °F30.26 in10.0 miCalmClear
7:15 AM0.0 °F0.0 °F30.27 in10.0 miCalmClear
7:35 AM0.0 °F0.0 °F30.27 in10.0 miCalmClear
7:55 AM0.0 °F0.0 °F30.28 in10.0 miCalmClear
8:15 AM0.0 °F0.0 °F30.29 in10.0 miCalmClear
8:35 AM0.0 °F0.0 °F30.30 in10.0 miCalmClear
8:55 AM41.0 °F30.2 °F65 %30.31 in10.0 miSW (220°)4.6 mphClear
9:15 AM44.6 °F30.2 °F57 %30.32 in10.0 miSW (220°)3.5 mphClear
9:35 AM46.4 °F30.2 °F53 %30.32 in10.0 miSouth (190°)6.9 mphClear
9:55 AM50.0 °F28.4 °F43 %30.32 in10.0 miSouth (190°)8.1 mphClear
10:15 AM51.8 °F24.8 °F35 %30.32 in10.0 miSouth (190°)6.9 mphClear
10:35 AM53.6 °F19.4 °F26 %30.32 in10.0 miSW (230°)8.1 mphClear
10:55 AM53.6 °F17.6 °F24 %30.32 in10.0 miWSW (240°)10.4 mphClear
11:15 AM55.4 °F17.6 °F23 %30.32 in10.0 miSW (220°)9.2 mphClear
11:35 AM55.4 °F17.6 °F23 %30.32 in10.0 miSW (220°)8.1 mphScattered Clouds
11:55 AM57.2 °F17.6 °F21 %30.31 in10.0 miWSW (240°)9.2 mphScattered Clouds
12:15 PM57.2 °F17.6 °F21 %30.30 in10.0 miSW (230°)8.1 mphScattered Clouds
12:35 PM59.0 °F14.0 °F17 %30.29 in10.0 miWSW (240°)6.9 mphScattered Clouds
12:55 PM59.0 °F14.0 °F17 %30.27 in10.0 miSSW (200°)8.1 mphClear
1:15 PM60.8 °F12.2 °F15 %30.27 in10.0 miWest (260°)8.1 mphScattered Clouds
1:35 PM60.8 °F14.0 °F16 %30.26 in10.0 miWSW (250°)5.8 mph16.1 mphScattered Clouds
1:55 PM60.8 °F14.0 °F16 %30.26 in10.0 miWSW (240°)8.1 mphScattered Clouds
2:15 PM60.8 °F14.0 °F16 %30.25 in10.0 miWest (260°)8.1 mphScattered Clouds
2:35 PM60.8 °F14.0 °F16 %30.25 in10.0 miSouth (180°)5.8 mph9.2 mphScattered Clouds
2:55 PM60.8 °F14.0 °F16 %30.25 in10.0 miSSW (210°)8.1 mphScattered Clouds
3:15 PM62.6 °F15.8 °F16 %30.25 in10.0 miSouth (190°)10.4 mphScattered Clouds
3:35 PM60.8 °F12.2 °F15 %30.24 in10.0 miSSW (210°)10.4 mphScattered Clouds
3:55 PM62.6 °F14.0 °F15 %30.24 in10.0 miWSW (250°)9.2 mphScattered Clouds
4:15 PM60.8 °F14.0 °F16 %30.24 in10.0 miSSW (210°)9.2 mphClear
4:35 PM60.8 °F14.0 °F16 %30.24 in10.0 miSouth (190°)10.4 mphScattered Clouds
4:55 PM60.8 °F17.6 °F19 %30.24 in10.0 miSouth (190°)9.2 mphScattered Clouds
5:15 PM59.0 °F21.2 °F23 %30.25 in10.0 miSouth (190°)10.4 mphScattered Clouds
5:35 PM57.2 °F26.6 °F31 %30.25 in10.0 miSouth (190°)10.4 mphScattered Clouds
5:55 PM55.4 °F30.2 °F38 %30.25 in10.0 miSouth (180°)8.1 mphScattered Clouds
6:15 PM55.4 °F28.4 °F36 %30.25 in10.0 miSouth (180°)11.5 mph16.1 mphScattered Clouds
6:35 PM53.6 °F28.4 °F38 %30.26 in10.0 miSouth (170°)8.1 mphScattered Clouds
6:55 PM53.6 °F28.4 °F38 %30.26 in10.0 miSouth (170°)8.1 mphScattered Clouds
7:15 PM51.8 °F26.6 °F38 %30.26 in10.0 miSouth (170°)5.8 mphClear
7:35 PM51.8 °F26.6 °F38 %30.27 in10.0 miSSE (160°)5.8 mphScattered Clouds
7:55 PM50.0 °F28.4 °F43 %30.28 in10.0 miSouth (170°)4.6 mphScattered Clouds
8:15 PM48.2 °F28.4 °F46 %30.30 in10.0 miSouth (180°)4.6 mphScattered Clouds
8:35 PM48.2 °F28.4 °F46 %30.31 in10.0 miSouth (190°)3.5 mphScattered Clouds
8:55 PM48.2 °F28.4 °F46 %30.33 in10.0 miSSW (200°)3.5 mphScattered Clouds
9:15 PM48.2 °F30.2 °F50 %30.33 in10.0 miSSW (200°)4.6 mphScattered Clouds
9:35 PM44.6 °F32.0 °F61 %30.33 in10.0 miSouth (190°)4.6 mphScattered Clouds
9:55 PM46.4 °F30.2 °F53 %30.33 in10.0 miSouth (170°)3.5 mphScattered Clouds
10:15 PM46.4 °F32.0 °F57 %30.33 in10.0 miSouth (190°)4.6 mphScattered Clouds
10:35 PM46.4 °F32.0 °F57 %30.32 in10.0 miSouth (180°)4.6 mphScattered Clouds
10:55 PM46.4 °F32.0 °F57 %30.33 in10.0 miSouth (190°)3.5 mphScattered Clouds
11:15 PM46.4 °F32.0 °F57 %30.33 in10.0 miSouth (180°)3.5 mphScattered Clouds
11:35 PM46.4 °F32.0 °F57 %30.33 in10.0 miSouth (180°)3.5 mphScattered Clouds
11:55 PM46.4 °F32.0 °F57 %30.33 in10.0 miSouth (170°)3.5 mphScattered Clouds
Hourly data recorded from KDRI, located miles away from Longville, Louisiana







STORIES FROM OUR PARTNERS